Weather History for Lamar, CO

Change the Weather History Date:

Tuesday, September 25, 2012

  Actual Average Record
Temperature  
Mean Temperature 66 °F 62 °F  
Max Temperature 82 °F 79 °F 100 °F (1998)
Min Temperature 49 °F 46 °F 29 °F (1961)
Degree Days  
Heating Degree Days 0 5  
Month to date heating degree days 41 52  
Since 1 July heating degree days 41 57  
Cooling Degree Days 1 2  
Month to date cooling degree days 107 113  
Year to date cooling degree days 1623 1102  
Growing Degree Days 16 (Base 50)    
Moisture  
Dew Point 43 °F    
Average Humidity 42    
Maximum Humidity 60    
Minimum Humidity 23    
Precipitation  
Precipitation 0.15 in 0.03 in 0.70 in (1955)
Month to date precipitation 0.31 1.10  
Year to date precipitation 4.69 13.47  
Sea Level Pressure  
Sea Level Pressure 29.79 in    
Wind  
Wind Speed 7 mph (SW)    
Max Wind Speed 21 mph    
Max Gust Speed 25 mph    
Visibility 10 miles    
Events Rain    
T = Trace of Precipitation, MM = Missing Value Source: NWS Daily Summary

Daily Weather History Graph

Daily Weather History Graph

Search for Another Location

Airport:

Trip Planner

Search our weather history database for the weather conditions in past years. The results will help you decide how hot, cold, wet, or windy it might be!

Date:

Astronomy

Sep. 25, 2012 Rise Set
Actual Time 6:41 AM MDT 6:42 PM MDT
Civil Twilight 6:15 AM MDT 7:08 PM MDT
Nautical Twilight 5:44 AM MDT 7:39 PM MDT
Astronomical Twilight 5:13 AM MDT 8:09 PM MDT
Moon 4:05 PM MDT (9/25) 2:09 AM MDT (9/25)
Length of Visible Light 12h 53m
Length of Day
12h 00m
Waxing Gibbous, 80% of the Moon is Illuminated
Sep 25
Waxing Gibbous
Sep 29
Full
Oct 8
Last Quarter
Oct 15
New
Oct 21
First Quarter

Hourly Weather History & Observations

Time (MDT) Temp. Dew Point Humidity Pressure Visibility Wind Dir Wind Speed Gust Speed Precip Events Conditions
12:53 AM 66.0 °F 41.0 °F 40% 29.75 in 10.0 mi North 4.6 mph - N/A   Clear
1:53 AM 59.0 °F 39.0 °F 48% 29.75 in 10.0 mi Calm Calm - N/A   Clear
2:53 AM 55.0 °F 37.9 °F 53% 29.75 in 10.0 mi South 8.1 mph - N/A   Clear
3:53 AM 53.1 °F 37.9 °F 57% 29.76 in 10.0 mi SSW 5.8 mph - N/A   Clear
4:53 AM 50.0 °F 36.0 °F 59% 29.76 in 10.0 mi West 3.5 mph - N/A   Clear
5:53 AM 54.0 °F 37.9 °F 55% 29.77 in 10.0 mi SW 6.9 mph - N/A   Clear
6:53 AM 54.0 °F 39.9 °F 59% 29.78 in 10.0 mi SW 8.1 mph - N/A   Clear
7:53 AM 57.9 °F 42.1 °F 56% 29.78 in 10.0 mi WSW 8.1 mph - N/A   Clear
8:53 AM 61.0 °F 43.0 °F 52% 29.79 in 10.0 mi West 6.9 mph - N/A   Clear
9:53 AM 66.0 °F 44.1 °F 45% 29.79 in 10.0 mi Variable 3.5 mph - N/A   Clear
10:53 AM 71.1 °F 42.1 °F 35% 29.77 in 10.0 mi Calm Calm - N/A   Clear
11:53 AM 73.9 °F 41.0 °F 30% 29.76 in 10.0 mi SW 10.4 mph - N/A   Clear
1:53 PM 79.0 °F 41.0 °F 26% 29.73 in 10.0 mi SSW 9.2 mph - N/A   Mostly Cloudy
2:53 PM 80.1 °F 41.0 °F 25% 29.72 in 10.0 mi SE 5.8 mph - N/A   Clear
3:53 PM 80.1 °F 39.9 °F 24% 29.72 in 10.0 mi South 5.8 mph - N/A   Mostly Cloudy
4:53 PM 80.1 °F 39.0 °F 23% 29.73 in 10.0 mi Calm Calm - N/A   Mostly Cloudy
5:53 PM 81.0 °F 39.0 °F 22% 29.72 in 10.0 mi Calm Calm - N/A   Partly Cloudy
6:53 PM 72.0 °F 46.0 °F 40% 29.77 in 10.0 mi ENE 19.6 mph 25.3 mph N/A   Clear
7:53 PM 69.1 °F 48.0 °F 47% 29.79 in 10.0 mi East 13.8 mph 21.9 mph N/A   Clear
8:53 PM 66.9 °F 48.9 °F 52% 29.81 in 10.0 mi East 8.1 mph - N/A   Scattered Clouds
9:27 PM 64.4 °F 48.2 °F 56% 29.99 in 10.0 mi NW 16.1 mph 24.2 mph N/A   Mostly Cloudy
9:53 PM 62.1 °F 48.0 °F 60% 29.88 in 10.0 mi NW 17.3 mph 25.3 mph N/A   Mostly Cloudy
11:39 PM 57.2 °F 51.8 °F 82% 29.96 in 1.8 mi NNE 16.1 mph 20.7 mph 0.14 in Rain Heavy Rain
11:53 PM 57.9 °F 54.0 °F 87% 29.84 in 10.0 mi ENE 13.8 mph - 0.15 in Rain Light Rain